Theta_e
296 299 301 302 303 303 299 298 297 299 305 308 315 316 319 321 329 330 330 329 329 329 330 331 333 334 334 336 338 338 337 335 334 336 338 338 337 336 336 337 335 337 337 336
298 305 305 304 307 307 306 308 308 306 307 313 319 315 317 320 329 329 328 328 329 330 331 330 331 331 332 331 332 333 333 334 337 336 334 335 336 336 334 336 336 330 328 328
296 302 303 299 305 306 307 308 310 307 310 316 314 316 316 324 330 327 327 328 328 329 330 331 331 333 330 330 332 334 333 334 333 333 333 333 332 330 329 328 327 327 326 327
297 298 293 302 309 313 313 315 316 315 313 316 315 319 326 333 327 327 328 329 329 331 331 331 331 331 330 329 329 331 330 330 329 327 325 325 326 324 324 325 325 325 325 326
297 295 299 305 310 310 307 310 316 314 316 317 326 327 325 331 331 329 329 330 330 330 329 327 327 326 327 326 327 325 322 321 322 323 322 322 321 321 321 321 321 322 323 323
297 293 293 301 311 315 313 303 316 320 317 321 325 317 323 329 330 329 330 330 328 328 327 325 324 325 321 320 321 320 321 321 322 322 321 320 319 319 320 319 321 321 321 321
295 294 298 306 313 316 299 301 314 323 323 325 319 319 326 330 329 329 329 328 328 326 324 321 319 319 318 318 317 320 320 320 320 320 320 320 317 317 317 317 317 316 317 317
295 293 294 311 310 306 310 314 323 323 325 319 319 325 327 328 326 326 326 326 324 318 317 318 320 320 318 318 320 321 319 318 318 318 319 319 315 315 315 314 313 312 312 312
300 300 306 309 307 311 314 322 322 322 322 321 325 325 326 322 320 321 321 319 317 316 317 318 319 319 318 318 319 319 318 317 316 315 315 314 311 311 311 311 310 310 309 309
302 304 308 311 312 318 323 323 327 327 325 323 322 327 322 319 318 318 319 318 320 319 318 317 318 318 317 318 318 315 313 312 312 311 312 311 312 311 309 310 311 312 311 311
301 303 309 312 313 318 324 328 329 328 328 326 321 318 315 314 315 315 316 317 318 318 316 315 315 314 314 316 316 312 311 311 309 309 308 308 309 309 310 311 309 310 310 310
297 302 306 307 313 323 323 324 326 323 318 319 317 314 314 312 313 315 314 315 314 314 313 312 311 310 312 313 311 309 308 308 308 307 307 309 310 309 311 309 306 304 303 303
303 311 307 312 316 318 316 318 319 317 316 313 314 314 314 313 313 314 313 315 314 312 312 310 310 309 310 309 308 307 305 306 308 309 312 311 311 310 310 311 309 306 303 303
311 313 310 311 309 313 312 314 314 315 315 314 314 315 316 315 314 312 312 312 311 310 307 306 306 306 308 308 308 307 306 308 306 307 308 311 311 311 312 312 312 313 310 307
308 311 312 310 311 310 312 313 311 311 312 313 315 315 314 313 311 310 312 312 311 309 308 307 306 306 307 308 307 306 306 306 305 306 307 308 310 312 313 313 314 315 315 310
308 310 311 309 307 308 310 311 310 310 311 311 311 311 311 310 310 309 309 308 306 305 306 306 306 307 307 307 306 306 306 310 310 305 305 305 311 310 311 312 313 314 313 312
306 304 306 305 307 308 309 311 311 311 312 310 309 310 309 308 307 307 307 308 307 307 308 307 308 309 308 307 306 306 306 306 310 305 304 305 307 310 311 312 312 312 312 309
310 308 310 310 309 309 310 311 311 312 311 310 310 309 310 309 308 307 309 308 306 306 307 309 309 308 307 307 306 306 305 305 304 303 304 304 305 309 308 310 311 310 308 306
314 311 312 312 312 311 311 311 310 310 310 311 310 309 308 306 306 306 306 305 304 304 306 308 313 316 310 309 311 306 306 305 304 303 304 306 305 305 304 305 308 305 304 305
312 313 313 312 313 313 311 312 313 314 313 314 312 308 306 306 306 305 305 304 304 306 307 308 310 309 310 311 315 309 308 306 305 304 303 304 304 305 303 302 303 303 305 304
310 310 309 308 308 311 312 313 313 311 311 310 309 307 306 305 306 306 304 302 306 307 307 311 310 309 308 310 312 307 306 305 304 306 306 305 305 301 301 302 302 305 305 305
310 309 308 308 308 309 310 310 310 310 307 307 308 307 306 305 305 304 305 306 308 309 308 307 307 310 309 314 311 307 304 304 307 305 305 304 302 303 302 301 302 302 305 306
311 310 310 308 308 309 309 309 308 307 306 307 307 306 304 303 303 303 304 308 306 307 307 307 308 311 311 310 308 304 304 304 306 306 303 305 304 302 301 301 300 301 304 305
310 309 309 307 306 309 308 311 313 313 313 310 307 305 305 305 305 306 307 308 308 308 307 306 307 308 309 305 304 303 303 305 307 309 307 302 302 301 300 301 301 301 303 304
308 306 307 304 303 302 306 310 311 310 308 308 309 308 306 305 306 307 308 310 308 306 305 306 307 308 305 305 308 305 305 306 304 308 306 303 301 300 301 301 302 301 303 304
310 309 308 306 302 302 304 305 305 305 305 305 305 305 305 304 305 305 305 305 305 305 306 305 305 306 309 309 305 304 304 305 305 306 303 303 301 302 302 302 303 302 302 303
307 305 307 306 306 307 307 306 306 306 306 304 303 303 302 304 304 304 304 306 305 305 307 306 307 306 309 309 311 312 308 308 306 306 303 302 303 303 303 303 303 302 300 300
Wind_Speed
2 1 1 4 4 3 6 6 6 5 9 8 7 9 7 3 6 13 13 13 14 12 11 9 11 11 13 13 12 10 15 18 19 18 12 7 5 7 7 5 5 5 2 4
2 0 3 2 6 7 1 6 2 3 6 4 7 1 3 4 9 14 14 10 12 15 13 11 8 10 13 13 13 14 12 9 9 14 19 16 5 4 5 5 4 4 6 5
5 6 5 4 2 2 2 3 2 6 4 7 6 5 1 2 8 11 13 10 15 15 10 8 8 8 10 14 10 5 12 4 11 9 4 4 1 2 3 5 4 6 7 6
3 4 1 6 1 6 10 0 6 2 6 11 7 5 7 2 10 10 11 12 15 12 2 2 1 4 1 15 12 8 7 2 3 4 5 3 3 2 4 4 4 3 5 5
5 5 4 3 5 5 4 4 4 6 8 5 9 7 4 5 4 4 7 7 8 15 17 12 5 5 8 9 1 3 1 5 5 5 5 5 5 4 1 2 3 4 4 6
3 4 9 8 1 4 1 3 1 7 13 16 11 6 5 7 7 4 3 7 11 14 8 7 9 8 7 6 6 4 2 3 4 4 5 5 2 2 2 2 4 4 6 5
2 5 6 6 2 1 5 8 2 9 13 17 9 3 8 9 6 7 8 8 6 7 11 9 8 9 8 6 5 3 3 3 4 5 4 3 1 1 2 3 4 4 5 5
2 1 6 1 0 4 6 2 1 7 11 6 6 9 12 9 4 3 4 6 7 7 7 9 7 6 6 5 3 2 5 6 6 6 5 5 5 4 3 2 3 3 3 5
7 7 4 3 2 2 4 4 1 6 8 11 15 11 11 10 11 5 7 8 6 6 9 7 6 7 7 5 5 5 6 6 6 5 4 3 3 4 3 5 4 5 3 5
3 3 4 5 4 2 4 4 3 7 14 12 10 8 6 8 10 13 12 13 8 8 8 6 6 7 5 3 4 4 5 5 5 5 7 6 5 5 4 5 6 6 6 6
5 5 3 6 5 2 4 6 7 7 11 16 16 10 10 9 8 8 8 6 7 8 8 6 4 5 4 4 4 5 6 5 5 5 6 6 6 5 5 5 4 5 5 5
6 6 4 6 7 8 9 8 10 11 8 6 13 15 14 8 7 8 9 7 8 6 6 5 5 5 4 4 5 5 5 4 4 4 4 4 4 7 6 8 12 10 11 7
5 2 5 1 5 4 6 8 7 8 12 15 9 12 12 10 6 9 7 6 7 6 5 4 4 3 1 2 2 2 3 5 4 5 5 6 8 8 8 8 11 12 11 13
6 6 5 4 4 6 10 10 12 11 9 13 14 11 12 13 7 7 8 7 6 5 6 5 3 0 2 2 2 3 3 5 4 4 4 4 5 6 6 7 9 9 8 7
9 2 6 9 9 8 8 13 14 13 11 10 9 12 11 10 8 7 6 6 5 5 4 3 3 4 3 3 3 4 4 4 4 4 4 5 6 5 6 7 7 8 8 6
6 7 8 13 10 8 7 9 13 8 6 5 7 6 7 7 7 7 6 6 6 4 5 5 5 6 4 4 5 5 5 8 6 4 4 4 6 6 5 6 6 5 5 7
5 6 10 9 11 7 7 5 7 6 4 7 7 7 7 7 6 5 5 5 2 4 5 5 8 6 7 7 7 5 4 5 8 4 5 4 5 6 5 6 7 7 6 6
4 3 11 19 16 13 7 7 7 7 5 6 6 7 8 9 9 8 7 6 4 5 6 8 8 7 7 7 7 6 5 5 5 4 4 5 4 4 4 6 7 7 6 7
10 4 10 12 10 9 8 9 8 8 8 7 6 7 6 6 6 6 5 5 5 3 6 7 12 11 8 11 10 5 5 6 5 4 5 6 5 5 5 5 6 6 6 7
7 4 5 8 7 12 9 6 8 10 8 8 6 4 6 6 5 4 3 4 6 6 6 7 6 7 8 9 10 5 6 6 6 5 4 5 5 6 5 7 6 6 6 7
8 6 5 6 6 6 5 4 6 6 5 7 8 7 6 2 3 2 3 3 8 5 6 8 6 6 5 6 6 4 5 5 5 5 6 6 6 5 6 5 5 6 6 7
3 2 3 4 6 5 5 4 3 2 5 6 4 4 4 4 3 4 6 6 6 6 4 5 5 9 7 11 5 5 5 5 6 4 5 5 5 5 4 4 5 5 6 7
3 3 3 3 4 3 4 4 5 5 3 4 5 5 4 3 2 2 5 4 4 6 5 5 8 11 11 5 4 4 4 5 6 5 4 5 5 4 4 4 4 4 6 6
3 3 3 2 2 4 6 4 6 4 4 2 4 4 4 3 5 5 5 7 8 7 5 5 8 11 10 5 5 4 4 5 6 4 4 4 4 3 3 4 5 4 4 5
3 4 4 4 3 2 4 4 4 3 1 6 6 6 5 5 5 4 3 5 6 4 5 7 11 10 5 5 4 4 5 5 5 4 3 3 3 3 3 4 5 4 4 4
5 4 3 5 3 3 3 3 3 3 2 5 5 5 4 1 4 5 3 3 4 6 3 4 4 5 4 4 4 3 4 4 5 2 4 4 4 4 4 5 5 4 4 4
1 2 2 2 3 4 4 4 3 5 5 4 4 5 4 4 4 4 5 5 5 4 4 4 4 4 4 2 5 4 3 4 6 4 4 4 4 4 4 4 5 4 3 3
Wind_Direction
200 191 242 214 238 288 201 175 156 245 208 265 167 200 233 167 45 54 45 52 75 54 39 26 43 52 49 40 47 71 104 103 104 93 62 340 339 321 331 343 326 331 66 83
170 239 28 6 20 16 112 116 53 175 244 190 155 148 300 39 78 83 83 69 67 65 41 29 33 80 79 62 60 70 70 79 96 106 145 234 287 330 327 326 345 4 21 52
291 349 356 5 325 62 56 13 153 205 253 173 167 189 197 205 101 103 108 104 75 64 43 20 6 353 92 98 55 23 97 69 81 93 154 145 147 40 354 330 344 10 5 10
229 12 192 245 22 117 117 15 324 285 192 178 125 125 144 171 126 121 111 111 102 108 93 292 7 271 158 75 59 273 76 87 78 135 137 125 96 49 343 348 347 326 328 326
155 178 272 256 193 182 129 295 319 136 142 125 112 73 7 140 131 128 112 131 156 123 174 165 108 13 43 60 153 279 92 118 123 126 107 88 57 40 350 312 303 319 309 324
114 171 205 229 133 98 168 290 236 166 161 151 143 155 188 174 151 151 135 150 158 171 138 90 135 126 117 126 147 154 135 96 79 80 74 67 62 320 268 289 278 310 308 307
178 231 284 245 278 5 151 224 222 176 161 164 180 185 133 151 157 190 199 190 152 141 142 142 120 122 123 143 129 201 145 105 67 49 38 65 32 309 313 313 310 324 334 318
121 119 266 27 75 186 206 284 194 157 168 128 85 128 146 144 100 34 3 48 42 43 59 59 63 91 97 73 338 34 31 30 21 19 15 16 16 339 314 317 327 333 324 299
167 216 261 307 295 326 160 155 211 125 120 139 142 144 130 117 96 69 73 63 46 75 69 44 47 55 67 2 25 25 39 25 18 10 8 353 357 344 350 354 351 331 309 294
32 305 256 289 313 342 157 143 98 91 127 147 139 146 87 115 134 148 138 132 136 114 94 74 63 78 99 71 58 50 36 17 358 2 354 355 350 343 359 357 346 330 320 312
273 277 274 265 235 176 102 102 112 101 130 140 129 121 115 109 113 106 99 91 99 107 110 113 108 81 55 46 50 37 23 4 355 359 349 344 342 338 335 299 244 297 283 279
235 234 208 245 197 160 150 164 154 136 110 111 128 134 132 121 112 107 104 101 97 99 109 105 77 57 42 34 47 37 8 342 328 330 311 307 324 326 297 271 292 297 291 264
237 256 201 44 86 81 114 135 118 112 124 117 104 116 106 102 88 102 100 109 114 121 114 114 126 120 67 31 18 330 291 307 300 322 311 324 325 322 317 317 284 290 294 301
214 122 53 16 149 118 106 107 108 103 104 111 117 113 118 124 133 130 140 139 129 134 142 138 128 162 267 279 273 277 288 314 339 312 295 296 295 292 297 298 302 307 304 291
272 169 140 117 102 106 121 125 111 113 117 112 124 130 135 140 136 132 136 134 136 134 157 182 201 251 233 234 245 259 266 265 265 276 276 283 292 288 287 288 287 282 295 299
343 69 111 113 108 103 105 101 113 123 130 124 131 146 150 124 127 139 147 147 141 200 220 230 242 248 254 238 250 267 269 271 270 272 284 288 297 293 284 287 300 296 293 294
117 97 108 100 123 124 129 129 137 140 164 142 160 150 124 124 125 145 177 193 208 238 240 211 237 247 242 238 240 253 268 280 271 290 286 281 287 302 302 298 293 293 291 295
342 127 156 145 146 142 140 148 147 156 165 155 121 125 142 158 168 180 193 191 190 235 250 228 232 241 240 231 225 238 242 255 257 254 266 267 261 270 275 287 294 295 287 283
89 11 117 118 126 125 128 125 117 113 107 111 128 151 157 151 160 184 198 199 220 263 261 219 244 246 239 239 228 223 232 242 247 252 243 261 270 254 256 257 276 273 278 288
32 32 36 98 112 123 116 111 122 125 128 108 100 170 165 191 194 185 192 242 227 223 261 278 276 261 248 254 259 229 242 244 243 253 252 249 255 269 265 255 256 263 277 283
19 24 33 66 72 53 61 97 114 121 136 131 167 180 192 210 212 202 253 274 276 271 267 279 262 259 252 250 249 241 242 250 248 257 256 248 252 249 260 265 262 277 286 289
41 30 50 87 80 57 30 31 38 130 152 163 157 151 183 236 254 274 239 227 283 318 301 289 279 268 269 268 254 234 233 242 255 252 261 260 253 261 285 277 275 284 294 292
223 141 122 123 122 85 49 64 73 87 116 153 165 192 210 228 214 242 296 282 229 273 285 276 284 293 290 287 261 247 249 264 262 253 256 257 252 259 260 278 289 289 296 302
197 159 127 108 74 110 106 119 108 102 44 335 259 251 236 263 282 217 244 274 282 291 300 307 305 308 307 296 279 256 256 261 258 256 258 257 255 258 272 281 282 282 285 303
213 155 150 157 172 172 166 133 103 111 215 311 311 286 254 221 200 266 269 257 279 308 292 298 309 304 302 288 279 256 247 259 276 262 228 226 229 247 264 272 271 286 291 290
199 197 202 180 177 188 176 166 189 205 217 265 279 265 268 185 229 250 283 303 287 277 325 312 301 315 327 339 314 249 276 303 299 248 223 231 229 246 264 277 287 298 297 298
176 151 176 241 225 197 187 197 204 252 218 223 262 278 273 248 264 258 259 265 267 294 322 329 296 294 310 348 289 297 286 271 268 255 243 249 244 254 267 274 280 297 298 298